Entrance, British Columbia

4:55 PM PDT on May 27, 2017 (GMT -0700)
Entrance

Weather History for CWEL - December, 2012

Change the Weather History Date:

Friday, December 7, 2012

  Actual Average Record
Temperature  
Mean Temperature 42 °F -  
Max Temperature 44 °F - - ()
Min Temperature 39 °F - - ()
Degree Days  
Heating Degree Days 24    
Moisture  
Dew Point -    
Average Humidity    
Maximum Humidity    
Minimum Humidity    
Precipitation  
Precipitation 0.08 in - - ()
Sea Level Pressure  
Sea Level Pressure 29.96 in    
Wind  
Wind Speed 11 mph ()    
Max Wind Speed 26 mph    
Max Gust Speed 29 mph    
T = Trace of Precipitation, MM = Missing Value Source: Averaged Metar Reports

Daily Weather History Graph

Daily Weather History Graph

Search for Another Location

Airport or City:

Trip Planner

Search our weather history database for the weather conditions in past years. The results will help you decide how hot, cold, wet, or windy it might be!

Date:

Astronomy

Dec. 07, 2012 Rise Set
Actual Time 7:56 AM PST 4:17 PM PST
Civil Twilight 7:19 AM PST 4:54 PM PST
Nautical Twilight 6:39 AM PST 5:34 PM PST
Astronomical Twilight 6:00 AM PST 6:13 PM PST
Moon 12:52 AM PST (12/7) 12:43 PM PST (12/7)
Length of Visible Light 9h 34m
Length of Day
8h 20m
Last Quarter, 37% of the Moon is Illuminated
Dec 7
Last Quarter
Dec 13
New
Dec 19
First Quarter
Dec 28
Full
Jan 4
Last Quarter

Hourly Weather History & Observations

Time (PST) Temp. Windchill Dew Point Humidity Pressure Visibility Wind Dir Wind Speed Gust Speed Precip Events Conditions
12:00 AM 43.3 °F 36.8 °F - N/A% 29.97 in - SSE 12.7 mph - 0.01 in   Unknown
1:00 AM 42.4 °F 37.5 °F - N/A% 29.95 in - SSE 8.1 mph - N/A   Unknown
2:00 AM 42.3 °F 35.9 °F - N/A% 29.93 in - SE 11.5 mph - N/A   Unknown
3:00 AM 41.5 °F 37.8 °F - N/A% 29.93 in - WSW 5.8 mph - N/A   Unknown
4:00 AM 42 °F - - % 29.91 in - SW 4.6 mph - -  
4:00 AM 41.7 °F 38.8 °F - N/A% 29.91 in - SW 4.6 mph - N/A   Unknown
5:00 AM 41.9 °F 38.2 °F - N/A% 29.90 in - SSW 5.8 mph - N/A   Unknown
6:00 AM 41.2 °F - - N/A% 29.89 in - Calm Calm - N/A   Unknown
7:00 AM 42.3 °F 40.5 °F - N/A% 29.88 in - NW 3.5 mph - N/A   Unknown
8:00 AM 43.3 °F 37.2 °F - N/A% 29.88 in - West 11.5 mph - N/A   Unknown
9:00 AM 42.8 °F 37.0 °F - N/A% 29.89 in - West 10.4 mph - N/A   Unknown
10:00 AM 43 °F - - % 29.89 in - NW 12.7 mph - -  
10:00 AM 43.2 °F 36.6 °F - N/A% 29.89 in - NW 12.7 mph - N/A   Unknown
11:00 AM 39.9 °F 30.2 °F - N/A% 29.92 in - NW 20.7 mph 28.8 mph 0.03 in   Unknown
12:00 PM 42.6 °F 32.6 °F - N/A% 29.93 in - NNW 26.5 mph - 0.03 in   Unknown
1:00 PM 42.3 °F 33.3 °F - N/A% 29.96 in - NW 20.7 mph - 0.02 in   Unknown
2:00 PM 43.5 °F 34.5 °F - N/A% 29.97 in - NW 23.0 mph - N/A   Unknown
3:00 PM 43.0 °F 33.8 °F - N/A% 29.98 in - NW 23.0 mph - N/A   Unknown
4:00 PM 44 °F - - % 30.00 in - NW 23.0 mph - -  
5:00 PM 42.4 °F 34.7 °F - N/A% 30.02 in - West 16.1 mph - N/A   Unknown
6:00 PM 41.9 °F 34.3 °F - N/A% 30.03 in - West 15.0 mph - N/A   Unknown
7:00 PM 42.3 °F 35.1 °F - N/A% 30.04 in - WNW 13.8 mph - N/A   Unknown
8:00 PM 42.3 °F 34.4 °F - N/A% 30.06 in - NW 16.1 mph - N/A   Unknown
9:00 PM 41.7 °F 34.1 °F - N/A% 30.06 in - NW 15.0 mph - N/A   Unknown
10:00 PM 42 °F - - % 30.07 in - NW 15.0 mph - -  
10:00 PM 42.1 °F 34.5 °F - N/A% 30.07 in - NW 15.0 mph - N/A   Unknown
11:00 PM 41.9 °F 35.0 °F - N/A% 30.08 in - NW 12.7 mph - N/A   Unknown